This is the latest recevied weather packets stored in our database for station/object VK5KX. If no packets are shown the sender has not sent any weather packets the latest 10 day(s).
| Time | Temp. | Humidity | Pressure | Rain* | Wind** | Luminosity | Snow |
|---|---|---|---|---|---|---|---|
| 1777716052 | 15.56° C | 91% | 1010.6 hPa | 0 mm | - | - | - |
| 1777715157 | 15.56° C | 91% | 1010.7 hPa | 0 mm | - | - | - |
| 1777714250 | 15.56° C | 91% | 1010.6 hPa | 0 mm | - | - | - |
| 1777713349 | 15.56° C | 91% | 1010.4 hPa | 0 mm | - | - | - |
| 1777712466 | 15.56° C | 91% | 1010.2 hPa | 0 mm | - | - | - |
| 1777711548 | 15.56° C | 92% | 1010.2 hPa | 0 mm | - | - | - |
| 1777710647 | 15.56° C | 92% | 1010.2 hPa | 0 mm | - | - | - |
| 1777709764 | 15.56° C | 92% | 1010.2 hPa | 0 mm | - | - | - |
| 1777708849 | 15.56° C | 92% | 1010.1 hPa | 0.25 mm | - | - | - |
| 1777707942 | 15.56° C | 92% | 1010 hPa | 0.25 mm | - | - | - |
| 1777707042 | 15.56° C | 92% | 1010.1 hPa | 0.51 mm | - | - | - |
| 1777706140 | 15.56° C | 92% | 1010 hPa | 1.02 mm | - | - | - |
| 1777705254 | 15.56° C | 92% | 1010.3 hPa | 1.02 mm | - | - | - |
| 1777704337 | 15.56° C | 91% | 1009.9 hPa | 0.76 mm | - | - | - |
| 1777703439 | 15.56° C | 91% | 1010.1 hPa | 0.51 mm | - | - | - |
| 1777702534 | 15.56° C | 91% | 1009.7 hPa | 0.25 mm | - | - | - |
| 1777701634 | 15.56° C | 90% | 1009.7 hPa | 0.25 mm | - | - | - |
| 1777700734 | 16.11° C | 90% | 1009.8 hPa | 0.51 mm | - | - | - |
| 1777699830 | 16.67° C | 91% | 1009.6 hPa | 0.76 mm | - | - | - |
| 1777698928 | 16.67° C | 90% | 1009.4 hPa | 1.02 mm | - | - | - |
| 1777698028 | 16.67° C | 90% | 1009.4 hPa | 1.02 mm | - | - | - |
| 1777697127 | 16.67° C | 89% | 1009.5 hPa | 0.76 mm | - | - | - |
| 1777696225 | 17.22° C | 88% | 1009.8 hPa | 0.51 mm | - | - | - |
| 1777695323 | 17.22° C | 88% | 1009.5 hPa | 0.51 mm | - | - | - |
| 1777694425 | 17.22° C | 87% | 1009.4 hPa | 0.76 mm | - | - | - |
* Rain latest hour (hover to see other rain measurements)
** Current wind speed in m/s (hover to see current wind gust speed)